Flag for Slovenia Weather past 2 weeks in Kranj, Slovenia

Now
57 °F

Sprinkles. Broken clouds.


Feels Like: 57 °F
Forecast: 42 / 66 °F
Wind: 2 mph from North

Location: Ljubljana Airport / Brnik

Current Time: Sep 22, 2014 at 7:09:10 PM

Latest Report: Sep 22, 2014 at 6:30 PM


Visibility: 5 mi

Pressure: 29.86 "Hg

Humidity: 94%

Dew point: 55 °F

Location of KranjLocation

Historic Weather in Kranj — Graph

°F

Kranj temperature yesterday

Maximum temperature yesterday: 79 °F (at 4:00 PM)
Minimum temperature yesterday: 55 °F (at 7:00 AM)
Average temperature yesterday: 66 °F

Past Weeks' High & Low Weather Summary

 TemperatureHumidityPressure
High81 °F (Sep 9, 4:00 PM)100% (Sep 8, 12:00 AM)30.12 "Hg (Sep 8, 12:00 AM)
Low50 °F (Sep 15, 3:00 AM)50% (Sep 19, 2:30 PM)29.83 "Hg (Sep 22, 2:30 PM)
Average60 °F88%30.01 "Hg
* Reported Sep 7 6:00 PM — Sep 22 6:00 PM, Kranj, Weather by CustomWeather, © 2014

Note: Actual official high and low records may vary slightly from our data, if they occured in-between our weather recording intervals... More about our weather records

Advertising

Kranj weather history for previous 24 hours

 ConditionsComfort  
Time TempWeatherWind HumidityBarometerVisibility
6:00 PM
Sep 22
57 °FThunderstorms. Broken clouds.2 mph94%29.86 "Hg5 mi
5:30 PM57 °FRain showers. Broken clouds.7 mph94%29.86 "Hg5 mi
5:00 PM57 °FStrong thunderstorms. Broken clouds.13 mph94%29.83 "Hg1 mi
4:30 PM59 °FRain showers. Broken clouds.13 mph88%29.83 "Hg4 mi
4:00 PM64 °FThundershowers. Broken clouds.12 mph68%29.83 "HgN/A
3:30 PM66 °FBroken clouds.8 mph64%29.83 "HgN/A
3:00 PM68 °FScattered clouds.7 mph60%29.83 "HgN/A
2:30 PM68 °FScattered clouds.8 mph60%29.83 "HgN/A
2:00 PM68 °FPassing clouds.6 mph60%29.86 "HgN/A
1:30 PM68 °FScattered clouds.6 mph60%29.86 "HgN/A
1:00 PM66 °FScattered clouds.5 mph68%29.86 "HgN/A
12:30 PM66 °FScattered clouds.7 mph68%29.89 "HgN/A
12:00 PM63 °FScattered clouds.5 mph88%29.89 "HgN/A
11:30 AM63 °FScattered clouds.5 mph88%29.89 "HgN/A
11:00 AM61 °FBroken clouds.2 mph94%29.89 "HgN/A
10:30 AM59 °FBroken clouds.2 mph94%29.89 "HgN/A
10:00 AM59 °FLight rain. Broken clouds.2 mph94%29.86 "HgN/A
9:30 AM59 °FLight rain. Broken clouds.2 mph94%29.89 "HgN/A
9:00 AM57 °FBroken clouds.2 mph100%29.89 "HgN/A
8:30 AM57 °FBroken clouds.1 mph100%29.89 "HgN/A
8:00 AM57 °FBroken clouds.No wind100%29.86 "HgN/A
7:30 AM57 °FPartly cloudy.1 mph100%29.86 "HgN/A
7:00 AM57 °FPartly cloudy.1 mph94%29.86 "HgN/A
6:30 AM55 °FPassing clouds.3 mph100%29.86 "HgN/A
6:00 AM55 °FPassing clouds.1 mph100%29.86 "HgN/A
5:30 AM54 °FFog.2 mph100%29.86 "Hg5 mi
5:00 AM55 °FFog.1 mph100%29.86 "HgN/A
4:30 AM59 °FMostly cloudy.5 mph94%29.86 "HgN/A
4:00 AM59 °FMostly cloudy.5 mph94%29.86 "HgN/A
3:30 AM59 °FLight rain. Mostly cloudy.3 mph100%29.86 "HgN/A
3:00 AM59 °FMostly cloudy.2 mph94%29.86 "HgN/A
2:00 AM63 °FSprinkles. Mostly cloudy.7 mph94%29.86 "HgN/A
1:30 AM63 °FThunderstorms. Passing clouds.7 mph94%29.86 "HgN/A
1:00 AM63 °FThunderstorms. Passing clouds.3 mph94%29.86 "HgN/A
12:30 AM63 °FLight rain. Passing clouds.No wind94%29.86 "HgN/A
12:00 AM64 °FLight rain. Passing clouds.1 mph88%29.86 "HgN/A
11:30 PM
Sep 21
64 °FPassing clouds.1 mph88%29.86 "HgN/A
11:00 PM63 °FPassing clouds.No wind94%29.89 "HgN/A
10:30 PM64 °FPartly cloudy.No wind88%29.89 "HgN/A
10:00 PM64 °FPartly cloudy.No wind88%29.89 "HgN/A
9:30 PM64 °FPartly cloudy.1 mph88%29.89 "HgN/A
9:00 PM64 °FPassing clouds.2 mph88%29.89 "HgN/A
8:30 PM64 °FPassing clouds.1 mph88%29.89 "HgN/A
8:00 PM66 °FScattered clouds.1 mph83%29.89 "HgN/A
7:30 PM70 °FScattered clouds.5 mph69%29.89 "HgN/A
7:00 PM70 °FScattered clouds.5 mph69%29.86 "HgN/A
Weather by CustomWeather, © 2014

See weather overviewHow to use our weather pages